Port Hope, MI

2:44 PM EDT on April 27, 2017 (GMT -0400)
Port Hope

Weather History for KP58 - November, 2012

Change the Weather History Date:

Thursday, November 15, 2012

  Actual Average Record
Temperature  
Mean Temperature 36 °F -  
Max Temperature 43 °F 44 °F 62 °F (2001)
Min Temperature 28 °F 34 °F 26 °F (1996)
Degree Days  
Heating Degree Days 30    
Moisture  
Dew Point 27 °F    
Average Humidity 74    
Maximum Humidity 89    
Minimum Humidity 58    
Precipitation  
Precipitation 0.00 in - - ()
Sea Level Pressure  
Sea Level Pressure 30.40 in    
Wind  
Wind Speed 2 mph (SW)    
Max Wind Speed 6 mph    
Max Gust Speed -    
Averages and records for this station are not official NWS values.
T = Trace of Precipitation, MM = Missing Value Source: NWS Daily Summary

Daily Weather History Graph

Daily Weather History Graph

Search for Another Location

Airport or City:

Trip Planner

Search our weather history database for the weather conditions in past years. The results will help you decide how hot, cold, wet, or windy it might be!

Date:

Astronomy

Nov. 15, 2012 Rise Set
Actual Time 7:26 AM EST 5:04 PM EST
Civil Twilight 6:55 AM EST 5:35 PM EST
Nautical Twilight 6:20 AM EST 6:10 PM EST
Astronomical Twilight 5:46 AM EST 6:44 PM EST
Moon 9:23 AM EST (11/15) 6:52 PM EST (11/15)
Length of Visible Light 10h 40m
Length of Day
9h 37m
Waxing Crescent, 5% of the Moon is Illuminated
Nov 15
Waxing Crescent
Nov 20
First Quarter
Nov 28
Full
Dec 6
Last Quarter
Dec 13
New

Hourly Weather History & Observations

Time (EST) Temp. Windchill Dew Point Humidity Pressure Visibility Wind Dir Wind Speed Gust Speed Precip Events Conditions
12:51 AM 34.0 °F 31.0 °F 26.1 °F 73% 30.47 in - WSW 3.5 mph - N/A   Unknown
1:51 AM 33.1 °F - 26.1 °F 75% 30.45 in - Calm Calm - N/A   Unknown
2:51 AM 30.0 °F 26.5 °F 25.0 °F 82% 30.46 in - SW 3.5 mph - N/A   Unknown
3:51 AM 30.9 °F 27.5 °F 24.1 °F 76% 30.43 in - SW 3.5 mph - N/A   Unknown
4:51 AM 30.0 °F 26.5 °F 24.1 °F 79% 30.42 in - SW 3.5 mph - N/A   Unknown
5:51 AM 30.0 °F 26.5 °F 24.1 °F 79% 30.43 in - SW 3.5 mph - N/A   Unknown
6:51 AM 28.0 °F 24.2 °F 23.0 °F 81% 30.43 in - SW 3.5 mph - N/A   Unknown
7:51 AM 28.0 °F 24.2 °F 24.1 °F 85% 30.44 in - SW 3.5 mph - N/A   Unknown
8:51 AM 33.1 °F 30.0 °F 27.0 °F 78% 30.44 in - WSW 3.5 mph - N/A   Unknown
9:51 AM 37.9 °F 35.5 °F 26.1 °F 62% 30.42 in - SW 3.5 mph - N/A   Unknown
10:51 AM 39.9 °F - 27.0 °F 60% 30.43 in - Calm Calm - N/A   Unknown
11:51 AM 41.0 °F 38.0 °F 28.0 °F 60% 30.40 in - South 4.6 mph - N/A   Unknown
12:51 PM 42.1 °F 40.2 °F 28.9 °F 60% 30.38 in - Variable 3.5 mph - N/A   Unknown
1:51 PM 43.0 °F 39.5 °F 28.9 °F 58% 30.36 in - SW 5.8 mph - N/A   Unknown
2:51 PM 43.0 °F - 28.9 °F 58% 30.35 in - Calm Calm - N/A   Unknown
3:51 PM 42.1 °F 40.2 °F 28.9 °F 60% 30.35 in - SSW 3.5 mph - N/A   Unknown
4:51 PM 39.9 °F - 28.9 °F 65% 30.36 in - Calm Calm - N/A   Unknown
5:51 PM 34.0 °F - 28.0 °F 79% 30.37 in - Calm Calm - N/A   Unknown
6:51 PM 32.0 °F - 27.0 °F 82% 30.37 in - Calm Calm - N/A   Unknown
7:51 PM 30.9 °F - 28.0 °F 89% 30.37 in - Calm Calm - N/A   Unknown
8:51 PM 30.0 °F - 27.0 °F 88% 30.36 in - Calm Calm - N/A   Unknown
9:51 PM 30.0 °F - 26.1 °F 85% 30.37 in - Calm Calm - N/A   Unknown
10:51 PM 28.9 °F - 26.1 °F 89% 30.37 in - Calm Calm - N/A   Unknown
11:51 PM 30.9 °F 27.5 °F 27.0 °F 85% 30.37 in - SW 3.5 mph - N/A   Unknown